Time,TemperatureF,DewpointF,PressureIn,WindDirection,WindDirectionDegrees,WindSpeedMPH,WindSpeedGustMPH,Humidity,HourlyPrecipIn,Conditions,Clouds,dailyrainin,SolarRadiationWatts/m^2,SoftwareType,DateUTC
2013-10-08 00:21:00,52.0,15.0,-100.00,ESE,103,1.0,6.0,23,0.00,,,0.00,0.000000,,2013-10-08 07:21:00,
2013-10-08 00:32:00,52.0,15.0,-100.00,ESE,103,1.0,6.0,23,0.00,,,0.00,0.000000,,2013-10-08 07:32:00,
2013-10-08 00:42:00,52.0,15.0,-100.00,ESE,103,1.0,6.0,23,0.00,,,0.00,0.000000,,2013-10-08 07:42:00,
2013-10-08 00:52:00,52.0,15.0,-100.00,ESE,103,1.0,6.0,23,0.00,,,0.00,0.000000,,2013-10-08 07:52:00,
2013-10-08 01:22:00,51.0,19.0,-100.00,East,88,0.0,4.0,28,0.00,,,0.00,0.000000,,2013-10-08 08:22:00,
2013-10-08 01:32:00,51.0,19.0,-100.00,East,88,0.0,4.0,28,0.00,,,0.00,0.000000,,2013-10-08 08:32:00,
2013-10-08 01:42:00,51.0,19.0,-100.00,East,88,0.0,4.0,28,0.00,,,0.00,0.000000,,2013-10-08 08:42:00,
2013-10-08 01:52:00,51.0,19.0,-100.00,East,88,0.0,4.0,28,0.00,,,0.00,0.000000,,2013-10-08 08:52:00,
2013-10-08 02:22:00,52.0,20.0,-100.00,ESE,118,3.0,5.0,28,0.00,,,0.00,0.000000,,2013-10-08 09:22:00,
2013-10-08 02:33:00,52.0,20.0,-100.00,ESE,118,3.0,5.0,28,0.00,,,0.00,0.000000,,2013-10-08 09:33:00,
2013-10-08 02:43:00,52.0,20.0,-100.00,ESE,118,3.0,5.0,28,0.00,,,0.00,0.000000,,2013-10-08 09:43:00,
2013-10-08 02:53:00,52.0,20.0,-100.00,ESE,118,3.0,5.0,28,0.00,,,0.00,0.000000,,2013-10-08 09:53:00,
2013-10-08 03:23:00,50.0,20.0,-100.00,ESE,108,1.0,5.0,30,0.00,,,0.00,0.000000,,2013-10-08 10:23:00,
2013-10-08 03:33:00,50.0,20.0,-100.00,ESE,108,1.0,5.0,30,0.00,,,0.00,0.000000,,2013-10-08 10:33:00,
2013-10-08 03:42:00,50.0,20.0,-100.00,ESE,108,1.0,5.0,30,0.00,,,0.00,0.000000,,2013-10-08 10:42:00,
2013-10-08 03:53:00,50.0,20.0,-100.00,ESE,108,1.0,5.0,30,0.00,,,0.00,0.000000,,2013-10-08 10:53:00,
2013-10-08 04:22:00,51.0,21.0,-100.00,ESE,109,1.0,6.0,30,0.00,,,0.00,0.000000,,2013-10-08 11:22:00,
2013-10-08 04:33:00,51.0,21.0,-100.00,ESE,109,1.0,6.0,30,0.00,,,0.00,0.000000,,2013-10-08 11:33:00,
2013-10-08 04:42:00,51.0,21.0,-100.00,ESE,109,1.0,6.0,30,0.00,,,0.00,0.000000,,2013-10-08 11:42:00,
2013-10-08 04:52:00,51.0,21.0,-100.00,ESE,109,1.0,6.0,30,0.00,,,0.00,0.000000,,2013-10-08 11:52:00,
2013-10-08 05:21:00,50.0,21.0,-100.00,ESE,109,2.0,6.0,32,0.00,,,0.00,0.000000,,2013-10-08 12:21:00,
2013-10-08 05:31:00,50.0,21.0,-100.00,ESE,109,2.0,6.0,32,0.00,,,0.00,0.000000,,2013-10-08 12:31:00,
2013-10-08 05:42:00,50.0,21.0,-100.00,ESE,109,2.0,6.0,32,0.00,,,0.00,0.000000,,2013-10-08 12:42:00,
2013-10-08 05:52:00,50.0,21.0,-100.00,ESE,109,2.0,6.0,32,0.00,,,0.00,0.000000,,2013-10-08 12:52:00,
2013-10-08 06:22:00,51.0,21.0,-100.00,ESE,107,2.0,6.0,31,0.00,,,0.00,0.000000,,2013-10-08 13:22:00,
2013-10-08 06:32:00,51.0,21.0,-100.00,ESE,107,2.0,6.0,31,0.00,,,0.00,0.000000,,2013-10-08 13:32:00,
2013-10-08 06:42:00,51.0,21.0,-100.00,ESE,107,2.0,6.0,31,0.00,,,0.00,0.000000,,2013-10-08 13:42:00,
2013-10-08 06:52:00,51.0,21.0,-100.00,ESE,107,2.0,6.0,31,0.00,,,0.00,0.000000,,2013-10-08 13:52:00,
2013-10-08 07:22:00,49.0,21.0,-100.00,ESE,102,0.0,6.0,33,0.00,,,0.00,0.000000,,2013-10-08 14:22:00,
2013-10-08 07:32:00,49.0,21.0,-100.00,ESE,102,0.0,6.0,33,0.00,,,0.00,0.000000,,2013-10-08 14:32:00,
2013-10-08 07:42:00,49.0,21.0,-100.00,ESE,102,0.0,6.0,33,0.00,,,0.00,0.000000,,2013-10-08 14:42:00,
2013-10-08 07:52:00,49.0,21.0,-100.00,ESE,102,0.0,6.0,33,0.00,,,0.00,0.000000,,2013-10-08 14:52:00,
2013-10-08 08:22:00,51.0,19.0,-100.00,East,101,2.0,5.0,28,0.00,,,0.00,17.000000,,2013-10-08 15:22:00,
2013-10-08 08:33:00,51.0,19.0,-100.00,East,101,2.0,5.0,28,0.00,,,0.00,17.000000,,2013-10-08 15:33:00,
2013-10-08 08:44:00,51.0,19.0,-100.00,East,101,2.0,5.0,28,0.00,,,0.00,17.000000,,2013-10-08 15:44:00,
2013-10-08 08:53:00,51.0,19.0,-100.00,East,101,2.0,5.0,28,0.00,,,0.00,17.000000,,2013-10-08 15:53:00,
2013-10-08 09:42:00,64.0,23.0,-100.00,ESE,105,0.0,7.0,21,0.00,,,0.00,313.000000,,2013-10-08 16:42:00,
2013-10-08 12:42:00,75.0,29.0,-100.00,West,277,3.0,11.0,18,-99.99,,,0.00,890.000000,,2013-10-08 19:42:00,
2013-10-08 12:52:00,75.0,29.0,-100.00,West,277,3.0,11.0,18,-99.99,,,0.00,890.000000,,2013-10-08 19:52:00,
2013-10-08 13:22:00,73.0,26.0,-100.00,WSW,257,4.0,11.0,17,0.00,,,0.00,953.000000,,2013-10-08 20:22:00,
2013-10-08 13:32:00,73.0,26.0,-100.00,WSW,257,4.0,11.0,17,0.00,,,0.00,953.000000,,2013-10-08 20:32:00,
2013-10-08 13:42:00,73.0,26.0,-100.00,WSW,257,4.0,11.0,17,0.00,,,0.00,953.000000,,2013-10-08 20:42:00,
2013-10-08 13:52:00,73.0,26.0,-100.00,WSW,257,4.0,11.0,17,0.00,,,0.00,953.000000,,2013-10-08 20:52:00,
2013-10-08 14:22:00,74.0,23.0,-100.00,SW,234,4.0,12.0,15,0.00,,,0.00,944.000000,,2013-10-08 21:22:00,
2013-10-08 14:34:00,74.0,23.0,-100.00,SW,234,4.0,12.0,15,0.00,,,0.00,944.000000,,2013-10-08 21:34:00,
2013-10-08 14:44:00,74.0,23.0,-100.00,SW,234,4.0,12.0,15,0.00,,,0.00,944.000000,,2013-10-08 21:44:00,
2013-10-08 14:54:00,74.0,23.0,-100.00,SW,234,4.0,12.0,15,0.00,,,0.00,944.000000,,2013-10-08 21:54:00,
2013-10-08 15:24:00,74.0,22.0,-100.00,West,259,4.0,11.0,14,0.00,,,0.00,855.000000,,2013-10-08 22:24:00,
2013-10-08 15:32:00,74.0,22.0,-100.00,West,259,4.0,11.0,14,0.00,,,0.00,855.000000,,2013-10-08 22:32:00,
2013-10-08 15:45:00,74.0,22.0,-100.00,West,259,4.0,11.0,14,0.00,,,0.00,855.000000,,2013-10-08 22:45:00,
2013-10-08 15:54:00,74.0,22.0,-100.00,West,259,4.0,11.0,14,0.00,,,0.00,855.000000,,2013-10-08 22:54:00,
2013-10-08 16:22:00,73.0,23.0,-100.00,South,171,4.0,11.0,15,0.00,,,0.00,695.000000,,2013-10-08 23:22:00,
2013-10-08 16:34:00,73.0,23.0,-100.00,South,171,4.0,11.0,15,0.00,,,0.00,695.000000,,2013-10-08 23:34:00,
2013-10-08 16:42:00,73.0,23.0,-100.00,South,171,4.0,11.0,15,0.00,,,0.00,695.000000,,2013-10-08 23:42:00,
2013-10-08 16:52:00,73.0,23.0,-100.00,South,171,4.0,11.0,15,0.00,,,0.00,695.000000,,2013-10-08 23:52:00,
2013-10-08 17:22:00,73.0,24.0,-100.00,WSW,239,4.0,10.0,16,0.00,,,0.00,474.000000,,2013-10-09 00:22:00,
2013-10-08 17:32:00,73.0,24.0,-100.00,WSW,239,4.0,10.0,16,0.00,,,0.00,474.000000,,2013-10-09 00:32:00,
2013-10-08 17:42:00,73.0,24.0,-100.00,WSW,239,4.0,10.0,16,0.00,,,0.00,474.000000,,2013-10-09 00:42:00,
2013-10-08 17:52:00,73.0,24.0,-100.00,WSW,239,4.0,10.0,16,0.00,,,0.00,474.000000,,2013-10-09 00:52:00,
2013-10-08 18:22:00,66.0,25.0,-100.00,WSW,254,2.0,9.0,21,0.00,,,0.00,212.000000,,2013-10-09 01:22:00,
2013-10-08 18:32:00,66.0,25.0,-100.00,WSW,254,2.0,9.0,21,0.00,,,0.00,212.000000,,2013-10-09 01:32:00,
2013-10-08 18:43:00,66.0,25.0,-100.00,WSW,254,2.0,9.0,21,0.00,,,0.00,212.000000,,2013-10-09 01:43:00,
2013-10-08 18:52:00,66.0,25.0,-100.00,WSW,254,2.0,9.0,21,0.00,,,0.00,212.000000,,2013-10-09 01:52:00,
2013-10-08 19:22:00,56.0,26.0,-100.00,East,86,0.0,9.0,31,0.00,,,0.00,5.000000,,2013-10-09 02:22:00,
2013-10-08 19:32:00,56.0,26.0,-100.00,East,86,0.0,9.0,31,0.00,,,0.00,5.000000,,2013-10-09 02:32:00,
2013-10-08 19:42:00,56.0,26.0,-100.00,East,86,0.0,9.0,31,0.00,,,0.00,5.000000,,2013-10-09 02:42:00,
2013-10-08 19:52:00,56.0,26.0,-100.00,East,86,0.0,9.0,31,0.00,,,0.00,5.000000,,2013-10-09 02:52:00,
2013-10-08 20:23:00,54.0,25.0,-100.00,East,99,1.0,3.0,32,0.00,,,0.00,0.000000,,2013-10-09 03:23:00,
2013-10-08 20:34:00,54.0,25.0,-100.00,East,99,1.0,3.0,32,0.00,,,0.00,0.000000,,2013-10-09 03:34:00,
2013-10-08 20:44:00,54.0,25.0,-100.00,East,99,1.0,3.0,32,0.00,,,0.00,0.000000,,2013-10-09 03:44:00,
2013-10-08 20:54:00,54.0,25.0,-100.00,East,99,1.0,3.0,32,0.00,,,0.00,0.000000,,2013-10-09 03:54:00,
2013-10-08 21:24:00,53.0,24.0,-100.00,ESE,116,2.0,7.0,32,0.00,,,0.00,0.000000,,2013-10-09 04:24:00,
2013-10-08 21:34:00,53.0,24.0,-100.00,ESE,116,2.0,7.0,32,0.00,,,0.00,0.000000,,2013-10-09 04:34:00,
2013-10-08 21:44:00,53.0,24.0,-100.00,ESE,116,2.0,7.0,32,0.00,,,0.00,0.000000,,2013-10-09 04:44:00,
2013-10-08 21:54:00,53.0,24.0,-100.00,ESE,116,2.0,7.0,32,0.00,,,0.00,0.000000,,2013-10-09 04:54:00,
2013-10-08 22:22:00,51.0,21.0,-100.00,East,87,0.0,6.0,31,0.00,,,0.00,0.000000,,2013-10-09 05:22:00,
2013-10-08 22:34:00,51.0,21.0,-100.00,East,87,0.0,6.0,31,0.00,,,0.00,0.000000,,2013-10-09 05:34:00,
2013-10-08 22:42:00,51.0,21.0,-100.00,East,87,0.0,6.0,31,0.00,,,0.00,0.000000,,2013-10-09 05:42:00,
2013-10-08 22:52:00,51.0,21.0,-100.00,East,87,0.0,6.0,31,0.00,,,0.00,0.000000,,2013-10-09 05:52:00,
2013-10-08 23:22:00,50.0,22.0,-100.00,East,88,0.0,5.0,33,0.00,,,0.00,0.000000,,2013-10-09 06:22:00,
2013-10-08 23:33:00,50.0,22.0,-100.00,East,88,0.0,5.0,33,0.00,,,0.00,0.000000,,2013-10-09 06:33:00,
2013-10-08 23:42:00,50.0,22.0,-100.00,East,88,0.0,5.0,33,0.00,,,0.00,0.000000,,2013-10-09 06:42:00,
2013-10-08 23:52:00,50.0,22.0,-100.00,East,88,0.0,5.0,33,0.00,,,0.00,0.000000,,2013-10-09 06:52:00,